Location: Sternwarte Stuttgart
(48.7670°N, 9.1830°E)
Time: 10:47:16
(UTC+01:00)

Tiangong 2 - Pass Details

Date: 24 January 2019
Orbit: 380 x 390 km, 42.8° (Epoch: 21 February)

Event Time Altitude Azimuth Distance (km) Brightness Sun altitude
Exits shadow 06:44:54 13° 235° (SW) 1,238 3.2 -12.8°
Maximum altitude 06:46:36 19° 197° (SSW) 1,000 3.1 -12.6°
Drops below altitude 10° 06:48:56 10° 150° (SSE) 1,411 4.6 -12.2°
Sets 06:51:23 0° 131° (SE) 2,266 6.3 -11.8°
